QPF
0.01 0.01 0.01 0.01 0.00 0.00 0.01 0.01 0.01 0.01 0.01 0.01 0.01 0.01 0.02 0.02 0.02 0.02 0.02 0.02 0.02 0.02 0.03 0.04 0.04 0.04 0.05 0.06 0.05 0.03 0.03 0.03 0.04 0.04 0.04 0.04 0.04 0.06 0.07 0.06 0.04 0.02 0.02 0.01
0.01 0.01 0.01 0.01 0.01 0.00 0.01 0.01 0.01 0.00 0.01 0.00 0.01 0.01 0.01 0.02 0.02 0.02 0.02 0.02 0.02 0.02 0.03 0.04 0.04 0.05 0.05 0.06 0.07 0.07 0.06 0.04 0.03 0.04 0.04 0.04 0.04 0.04 0.05 0.05 0.05 0.05 0.03 0.02
0.02 0.01 0.01 0.01 0.00 0.00 0.01 0.01 0.01 0.01 0.01 0.00 0.01 0.01 0.01 0.02 0.02 0.02 0.02 0.02 0.03 0.03 0.03 0.04 0.04 0.05 0.05 0.06 0.06 0.08 0.09 0.07 0.04 0.04 0.04 0.04 0.05 0.05 0.05 0.04 0.04 0.04 0.04 0.04
0.03 0.02 0.02 0.01 0.00 0.00 0.01 0.01 0.01 0.00 0.00 0.00 0.00 0.01 0.01 0.02 0.02 0.02 0.02 0.03 0.04 0.04 0.04 0.04 0.04 0.04 0.06 0.06 0.06 0.07 0.08 0.09 0.08 0.05 0.04 0.04 0.04 0.05 0.05 0.05 0.04 0.03 0.02 0.03
0.03 0.03 0.02 0.01 0.00 0.00 0.01 0.01 0.00 0.00 0.00 0.00 0.00 0.00 0.01 0.01 0.02 0.02 0.03 0.03 0.04 0.06 0.06 0.06 0.05 0.06 0.07 0.07 0.05 0.05 0.06 0.07 0.08 0.07 0.06 0.04 0.04 0.04 0.04 0.04 0.04 0.03 0.02 0.02
0.04 0.03 0.02 0.01 0.00 0.00 0.00 0.01 0.01 0.00 0.00 0.00 0.01 0.01 0.01 0.01 0.01 0.02 0.02 0.03 0.04 0.06 0.07 0.07 0.07 0.07 0.07 0.07 0.06 0.05 0.04 0.05 0.05 0.05 0.06 0.05 0.05 0.04 0.04 0.04 0.03 0.03 0.03 0.02
0.03 0.03 0.01 0.01 0.00 0.00 0.01 0.01 0.01 0.00 0.01 0.01 0.01 0.01 0.01 0.01 0.02 0.02 0.02 0.02 0.03 0.05 0.07 0.08 0.09 0.09 0.08 0.08 0.08 0.06 0.05 0.04 0.04 0.04 0.05 0.05 0.05 0.04 0.04 0.03 0.03 0.03 0.03 0.03
0.02 0.03 0.02 0.00 0.00 0.01 0.01 0.01 0.01 0.01 0.01 0.01 0.01 0.01 0.01 0.01 0.02 0.02 0.02 0.02 0.03 0.05 0.07 0.08 0.09 0.09 0.08 0.08 0.08 0.06 0.05 0.05 0.04 0.04 0.04 0.05 0.04 0.04 0.04 0.03 0.03 0.03 0.02 0.02
0.03 0.03 0.02 0.01 0.01 0.01 0.01 0.01 0.01 0.01 0.01 0.01 0.01 0.01 0.01 0.01 0.01 0.01 0.02 0.02 0.03 0.04 0.06 0.07 0.08 0.08 0.08 0.08 0.08 0.07 0.06 0.06 0.05 0.04 0.04 0.05 0.04 0.04 0.03 0.03 0.03 0.02 0.02 0.02
0.02 0.01 0.01 0.01 0.01 0.01 0.01 0.01 0.01 0.01 0.01 0.01 0.01 0.01 0.01 0.01 0.01 0.01 0.01 0.01 0.02 0.03 0.04 0.06 0.07 0.07 0.08 0.08 0.08 0.08 0.08 0.08 0.07 0.05 0.05 0.05 0.04 0.03 0.03 0.03 0.03 0.03 0.02 0.02
0.02 0.01 0.01 0.01 0.01 0.01 0.01 0.01 0.01 0.01 0.01 0.01 0.01 0.01 0.01 0.01 0.01 0.01 0.01 0.01 0.02 0.02 0.03 0.05 0.06 0.06 0.07 0.07 0.08 0.08 0.08 0.08 0.08 0.07 0.07 0.06 0.05 0.04 0.04 0.03 0.03 0.04 0.03 0.03
0.02 0.01 0.01 0.01 0.01 0.01 0.01 0.01 0.01 0.01 0.01 0.01 0.01 0.01 0.01 0.01 0.01 0.01 0.01 0.01 0.01 0.01 0.02 0.03 0.04 0.05 0.06 0.07 0.07 0.07 0.08 0.08 0.08 0.08 0.07 0.06 0.05 0.05 0.05 0.04 0.03 0.03 0.04 0.04
0.02 0.01 0.01 0.01 0.01 0.01 0.01 0.01 0.01 0.01 0.01 0.01 0.01 0.01 0.01 0.01 0.01 0.01 0.01 0.01 0.01 0.01 0.01 0.02 0.03 0.04 0.05 0.06 0.07 0.07 0.07 0.08 0.08 0.07 0.06 0.06 0.06 0.05 0.04 0.04 0.04 0.03 0.04 0.04
0.02 0.01 0.01 0.01 0.01 0.01 0.00 0.01 0.01 0.01 0.01 0.01 0.01 0.01 0.01 0.01 0.01 0.01 0.01 0.01 0.01 0.01 0.01 0.01 0.02 0.03 0.04 0.05 0.05 0.06 0.06 0.07 0.07 0.07 0.07 0.06 0.05 0.05 0.04 0.04 0.04 0.03 0.03 0.04
0.01 0.01 0.01 0.01 0.01 0.00 0.00 0.00 0.01 0.01 0.01 0.01 0.01 0.01 0.01 0.01 0.00 0.00 0.00 0.01 0.01 0.01 0.01 0.01 0.01 0.02 0.02 0.03 0.04 0.05 0.05 0.06 0.07 0.07 0.07 0.06 0.05 0.05 0.04 0.04 0.04 0.04 0.03 0.04
0.01 0.01 0.01 0.00 0.00 0.00 0.00 0.01 0.01 0.01 0.01 0.01 0.01 0.01 0.01 0.01 0.00 0.00 0.01 0.01 0.01 0.01 0.01 0.01 0.01 0.01 0.01 0.02 0.02 0.03 0.04 0.04 0.05 0.06 0.07 0.07 0.06 0.06 0.06 0.05 0.04 0.04 0.04 0.05
0.01 0.01 0.01 0.01 0.01 0.01 0.01 0.01 0.01 0.01 0.01 0.01 0.01 0.01 0.01 0.01 0.01 0.01 0.01 0.01 0.01 0.01 0.01 0.01 0.01 0.01 0.01 0.01 0.01 0.02 0.02 0.03 0.04 0.04 0.05 0.06 0.06 0.06 0.06 0.06 0.05 0.04 0.05 0.06
0.01 0.01 0.01 0.01 0.01 0.01 0.01 0.01 0.01 0.01 0.01 0.01 0.01 0.01 0.01 0.01 0.01 0.01 0.01 0.01 0.01 0.00 0.00 0.01 0.01 0.01 0.01 0.01 0.01 0.01 0.01 0.02 0.03 0.04 0.04 0.05 0.06 0.06 0.06 0.06 0.06 0.05 0.05 0.06
0.01 0.01 0.01 0.01 0.01 0.01 0.01 0.01 0.01 0.01 0.01 0.01 0.01 0.01 0.01 0.01 0.01 0.01 0.00 0.00 0.00 0.00 0.00 0.00 0.01 0.01 0.01 0.01 0.01 0.01 0.01 0.01 0.02 0.03 0.03 0.04 0.05 0.06 0.07 0.07 0.06 0.06 0.06 0.06
0.01 0.00 0.00 0.00 0.00 0.00 0.00 0.00 0.00 0.00 0.01 0.01 0.01 0.00 0.00 0.00 0.00 0.00 0.00 0.00 0.01 0.01 0.01 0.01 0.01 0.01 0.01 0.01 0.01 0.01 0.01 0.01 0.01 0.02 0.02 0.03 0.04 0.05 0.06 0.07 0.07 0.06 0.06 0.06
0.00 0.00 0.00 0.00 0.00 0.00 0.00 0.00 0.00 0.00 0.01 0.01 0.01 0.01 0.00 0.00 0.00 0.00 0.01 0.00 0.00 0.01 0.01 0.01 0.01 0.01 0.01 0.01 0.01 0.01 0.01 0.01 0.01 0.02 0.02 0.02 0.03 0.04 0.05 0.06 0.07 0.07 0.06 0.07
0.00 0.00 0.00 0.00 0.00 0.00 0.00 0.00 0.00 0.00 0.00 0.00 0.00 0.00 0.00 0.00 0.00 0.00 0.01 0.01 0.01 0.01 0.01 0.01 0.01 0.02 0.02 0.01 0.01 0.01 0.01 0.01 0.01 0.01 0.02 0.02 0.02 0.03 0.04 0.05 0.05 0.06 0.06 0.07
0.00 0.00 0.00 0.00 0.00 0.00 0.00 0.00 0.00 0.00 0.00 0.00 0.00 0.01 0.01 0.01 0.01 0.01 0.01 0.01 0.01 0.01 0.01 0.01 0.01 0.02 0.01 0.01 0.01 0.01 0.01 0.01 0.01 0.01 0.02 0.02 0.02 0.02 0.03 0.03 0.04 0.05 0.05 0.06
0.00 0.00 0.00 0.00 0.00 0.00 0.00 0.00 0.00 0.00 0.00 0.00 0.00 0.01 0.01 0.01 0.00 0.00 0.01 0.01 0.01 0.01 0.01 0.01 0.01 0.01 0.01 0.01 0.01 0.01 0.01 0.01 0.01 0.01 0.01 0.02 0.02 0.02 0.02 0.02 0.03 0.03 0.04 0.04
0.00 0.00 0.01 0.01 0.01 0.01 0.01 0.00 0.00 0.00 0.00 0.00 0.00 0.00 0.00 0.00 0.01 0.00 0.00 0.00 0.01 0.01 0.01 0.01 0.01 0.01 0.00 0.01 0.01 0.01 0.01 0.01 0.01 0.01 0.01 0.01 0.01 0.01 0.02 0.02 0.02 0.02 0.02 0.02
0.01 0.01 0.01 0.01 0.01 0.01 0.01 0.00 0.00 0.00 0.00 0.00 0.00 0.00 0.00 0.00 0.00 0.00 0.00 0.00 0.00 0.00 0.00 0.00 0.00 0.00 0.00 0.00 0.00 0.00 0.01 0.01 0.01 0.01 0.01 0.01 0.01 0.01 0.01 0.01 0.01 0.01 0.01 0.02
0.01 0.01 0.01 0.01 0.01 0.00 0.00 0.00 0.00 0.00 0.00 0.01 0.01 0.00 0.00 0.00 0.00 0.00 0.00 0.00 0.00 0.00 0.00 0.00 0.00 0.00 0.00 0.00 0.00 0.01 0.00 0.00 0.01 0.01 0.01 0.01 0.01 0.01 0.01 0.01 0.01 0.01 0.01 0.01
MSLP
1010.45 1010.59 1010.52 1010.29 1009.94 1009.55 1009.19 1008.93 1008.84 1008.95 1009.27 1009.80 1010.51 1011.35 1012.27 1013.24 1014.21 1015.16 1016.07 1016.93 1017.75 1018.53 1019.25 1019.93 1020.54 1021.08 1021.54 1021.91 1022.19 1022.39 1022.54 1022.64 1022.73 1022.83 1022.94 1023.07 1023.22 1023.37 1023.51 1023.62 1023.69 1023.72 1023.69 1023.63
1010.92 1010.99 1010.86 1010.56 1010.17 1009.76 1009.41 1009.18 1009.13 1009.28 1009.64 1010.17 1010.86 1011.64 1012.48 1013.34 1014.19 1015.02 1015.82 1016.60 1017.35 1018.10 1018.82 1019.51 1020.16 1020.75 1021.25 1021.66 1021.99 1022.23 1022.40 1022.54 1022.66 1022.78 1022.91 1023.06 1023.22 1023.37 1023.51 1023.60 1023.65 1023.63 1023.57 1023.47
1011.34 1011.37 1011.20 1010.89 1010.49 1010.10 1009.79 1009.62 1009.63 1009.83 1010.21 1010.74 1011.39 1012.10 1012.83 1013.56 1014.26 1014.94 1015.61 1016.27 1016.94 1017.63 1018.32 1019.01 1019.67 1020.29 1020.83 1021.29 1021.66 1021.94 1022.17 1022.35 1022.51 1022.67 1022.84 1023.02 1023.20 1023.37 1023.50 1023.57 1023.58 1023.53 1023.41 1023.25
1011.68 1011.70 1011.53 1011.23 1010.87 1010.54 1010.30 1010.20 1010.28 1010.53 1010.94 1011.46 1012.05 1012.67 1013.28 1013.86 1014.41 1014.93 1015.45 1015.98 1016.54 1017.15 1017.79 1018.44 1019.10 1019.72 1020.28 1020.76 1021.17 1021.50 1021.77 1022.00 1022.22 1022.44 1022.66 1022.88 1023.10 1023.29 1023.42 1023.48 1023.47 1023.37 1023.20 1022.98
1011.96 1011.99 1011.84 1011.59 1011.29 1011.04 1010.88 1010.87 1011.02 1011.33 1011.75 1012.26 1012.79 1013.32 1013.81 1014.24 1014.63 1015.00 1015.36 1015.76 1016.21 1016.71 1017.27 1017.87 1018.48 1019.07 1019.62 1020.11 1020.52 1020.88 1021.18 1021.46 1021.74 1022.01 1022.30 1022.58 1022.84 1023.06 1023.22 1023.28 1023.26 1023.13 1022.92 1022.65
1012.22 1012.25 1012.15 1011.95 1011.73 1011.57 1011.52 1011.60 1011.82 1012.17 1012.61 1013.09 1013.58 1014.01 1014.39 1014.70 1014.95 1015.17 1015.40 1015.67 1016.00 1016.40 1016.87 1017.38 1017.91 1018.44 1018.93 1019.37 1019.77 1020.11 1020.43 1020.74 1021.05 1021.38 1021.73 1022.07 1022.40 1022.67 1022.86 1022.95 1022.92 1022.78 1022.55 1022.24
1012.51 1012.56 1012.49 1012.35 1012.23 1012.16 1012.20 1012.36 1012.65 1013.04 1013.50 1013.96 1014.39 1014.76 1015.05 1015.25 1015.40 1015.51 1015.63 1015.79 1016.01 1016.30 1016.66 1017.06 1017.49 1017.91 1018.31 1018.67 1018.99 1019.30 1019.59 1019.90 1020.23 1020.60 1020.99 1021.40 1021.78 1022.10 1022.34 1022.46 1022.45 1022.32 1022.07 1021.74
1012.89 1012.95 1012.92 1012.85 1012.80 1012.82 1012.94 1013.19 1013.53 1013.96 1014.42 1014.87 1015.27 1015.59 1015.81 1015.95 1016.03 1016.07 1016.11 1016.19 1016.31 1016.50 1016.74 1017.02 1017.31 1017.60 1017.87 1018.11 1018.33 1018.55 1018.78 1019.05 1019.38 1019.76 1020.18 1020.62 1021.04 1021.41 1021.69 1021.84 1021.86 1021.73 1021.48 1021.13
1013.42 1013.48 1013.48 1013.47 1013.49 1013.59 1013.79 1014.09 1014.49 1014.94 1015.41 1015.85 1016.23 1016.53 1016.72 1016.83 1016.87 1016.88 1016.88 1016.90 1016.95 1017.05 1017.17 1017.32 1017.47 1017.60 1017.72 1017.81 1017.90 1018.00 1018.15 1018.35 1018.63 1018.99 1019.40 1019.85 1020.29 1020.68 1020.97 1021.14 1021.16 1021.04 1020.78 1020.42
1014.10 1014.17 1014.20 1014.23 1014.32 1014.49 1014.75 1015.11 1015.54 1016.02 1016.50 1016.94 1017.32 1017.61 1017.80 1017.91 1017.94 1017.94 1017.92 1017.91 1017.91 1017.93 1017.95 1017.97 1017.97 1017.95 1017.90 1017.84 1017.78 1017.75 1017.79 1017.90 1018.11 1018.41 1018.78 1019.20 1019.61 1019.98 1020.26 1020.40 1020.41 1020.26 1019.98 1019.59
1014.92 1015.00 1015.07 1015.15 1015.30 1015.52 1015.84 1016.25 1016.71 1017.21 1017.70 1018.15 1018.52 1018.82 1019.02 1019.14 1019.19 1019.20 1019.18 1019.15 1019.10 1019.05 1018.98 1018.88 1018.75 1018.58 1018.39 1018.17 1017.98 1017.82 1017.74 1017.75 1017.87 1018.09 1018.39 1018.74 1019.08 1019.38 1019.60 1019.68 1019.63 1019.43 1019.09 1018.66
1015.84 1015.94 1016.05 1016.19 1016.39 1016.68 1017.05 1017.49 1017.98 1018.49 1018.98 1019.43 1019.81 1020.11 1020.32 1020.45 1020.51 1020.53 1020.50 1020.44 1020.36 1020.24 1020.09 1019.89 1019.64 1019.35 1019.02 1018.69 1018.38 1018.12 1017.94 1017.86 1017.89 1018.01 1018.22 1018.47 1018.71 1018.91 1019.02 1019.00 1018.85 1018.56 1018.15 1017.65
1016.79 1016.93 1017.09 1017.29 1017.55 1017.90 1018.31 1018.78 1019.28 1019.79 1020.28 1020.72 1021.08 1021.37 1021.57 1021.69 1021.75 1021.75 1021.69 1021.59 1021.45 1021.27 1021.03 1020.73 1020.39 1020.00 1019.59 1019.17 1018.79 1018.46 1018.22 1018.07 1018.03 1018.07 1018.19 1018.33 1018.46 1018.53 1018.50 1018.36 1018.09 1017.69 1017.19 1016.61
1017.74 1017.92 1018.14 1018.40 1018.72 1019.11 1019.56 1020.05 1020.55 1021.05 1021.51 1021.91 1022.24 1022.48 1022.64 1022.72 1022.73 1022.67 1022.56 1022.39 1022.17 1021.90 1021.57 1021.19 1020.77 1020.31 1019.84 1019.39 1018.97 1018.62 1018.36 1018.19 1018.11 1018.10 1018.14 1018.19 1018.20 1018.15 1018.00 1017.73 1017.34 1016.84 1016.25 1015.61
1018.66 1018.89 1019.15 1019.47 1019.84 1020.27 1020.73 1021.22 1021.71 1022.16 1022.57 1022.91 1023.17 1023.33 1023.41 1023.40 1023.32 1023.16 1022.95 1022.67 1022.35 1021.97 1021.54 1021.08 1020.59 1020.08 1019.59 1019.13 1018.73 1018.41 1018.17 1018.01 1017.94 1017.91 1017.91 1017.90 1017.84 1017.70 1017.45 1017.08 1016.61 1016.04 1015.39 1014.72
1019.55 1019.82 1020.13 1020.48 1020.88 1021.32 1021.78 1022.24 1022.68 1023.07 1023.40 1023.64 1023.79 1023.84 1023.79 1023.66 1023.44 1023.15 1022.79 1022.38 1021.92 1021.41 1020.88 1020.33 1019.77 1019.24 1018.74 1018.31 1017.95 1017.68 1017.51 1017.41 1017.38 1017.39 1017.39 1017.37 1017.28 1017.10 1016.80 1016.40 1015.89 1015.30 1014.66 1014.01
1020.44 1020.73 1021.06 1021.43 1021.83 1022.26 1022.68 1023.09 1023.45 1023.74 1023.95 1024.07 1024.08 1023.99 1023.79 1023.49 1023.11 1022.66 1022.14 1021.56 1020.95 1020.31 1019.66 1019.02 1018.40 1017.84 1017.35 1016.95 1016.66 1016.46 1016.37 1016.36 1016.40 1016.48 1016.54 1016.55 1016.48 1016.32 1016.05 1015.67 1015.20 1014.67 1014.10 1013.53
1021.36 1021.65 1021.97 1022.32 1022.70 1023.07 1023.43 1023.75 1024.01 1024.18 1024.26 1024.23 1024.08 1023.82 1023.46 1023.00 1022.45 1021.82 1021.13 1020.39 1019.63 1018.86 1018.09 1017.36 1016.70 1016.11 1015.62 1015.25 1015.01 1014.89 1014.89 1014.96 1015.10 1015.26 1015.40 1015.49 1015.50 1015.41 1015.22 1014.93 1014.57 1014.16 1013.73 1013.31
1022.34 1022.59 1022.87 1023.17 1023.48 1023.78 1024.05 1024.26 1024.39 1024.43 1024.36 1024.18 1023.87 1023.46 1022.94 1022.32 1021.62 1020.84 1020.01 1019.14 1018.24 1017.35 1016.49 1015.69 1014.97 1014.35 1013.86 1013.51 1013.30 1013.24 1013.29 1013.45 1013.66 1013.91 1014.14 1014.32 1014.44 1014.47 1014.40 1014.26 1014.06 1013.82 1013.57 1013.35
1023.34 1023.53 1023.75 1023.97 1024.20 1024.40 1024.56 1024.65 1024.65 1024.55 1024.34 1024.02 1023.58 1023.04 1022.40 1021.66 1020.85 1019.97 1019.03 1018.07 1017.09 1016.12 1015.19 1014.33 1013.56 1012.91 1012.41 1012.05 1011.86 1011.81 1011.90 1012.09 1012.36 1012.67 1012.97 1013.25 1013.47 1013.63 1013.71 1013.73 1013.71 1013.67 1013.62 1013.61
1024.33 1024.44 1024.57 1024.72 1024.85 1024.95 1024.99 1024.95 1024.83 1024.61 1024.29 1023.86 1023.32 1022.69 1021.97 1021.17 1020.31 1019.38 1018.41 1017.41 1016.40 1015.40 1014.44 1013.55 1012.76 1012.08 1011.55 1011.18 1010.96 1010.90 1010.97 1011.16 1011.44 1011.77 1012.12 1012.46 1012.77 1013.03 1013.25 1013.43 1013.58 1013.72 1013.86 1014.03
1025.22 1025.25 1025.31 1025.37 1025.41 1025.40 1025.34 1025.21 1024.98 1024.66 1024.25 1023.75 1023.16 1022.49 1021.75 1020.95 1020.09 1019.18 1018.24 1017.27 1016.28 1015.31 1014.37 1013.49 1012.69 1012.00 1011.44 1011.03 1010.77 1010.66 1010.69 1010.84 1011.09 1011.40 1011.75 1012.11 1012.47 1012.81 1013.12 1013.42 1013.70 1013.97 1014.26 1014.56
1025.96 1025.93 1025.91 1025.90 1025.86 1025.77 1025.63 1025.41 1025.11 1024.73 1024.27 1023.73 1023.13 1022.47 1021.76 1021.01 1020.22 1019.39 1018.52 1017.63 1016.73 1015.83 1014.95 1014.11 1013.34 1012.65 1012.08 1011.63 1011.32 1011.15 1011.11 1011.18 1011.36 1011.62 1011.93 1012.27 1012.63 1012.99 1013.35 1013.71 1014.06 1014.42 1014.78 1015.15
1026.51 1026.43 1026.36 1026.29 1026.20 1026.05 1025.85 1025.58 1025.23 1024.81 1024.34 1023.80 1023.22 1022.61 1021.97 1021.30 1020.61 1019.90 1019.16 1018.39 1017.61 1016.82 1016.03 1015.27 1014.54 1013.88 1013.30 1012.83 1012.47 1012.23 1012.12 1012.11 1012.21 1012.38 1012.63 1012.91 1013.23 1013.57 1013.92 1014.28 1014.64 1015.01 1015.38 1015.75
1026.88 1026.77 1026.67 1026.57 1026.44 1026.26 1026.02 1025.71 1025.34 1024.91 1024.43 1023.92 1023.39 1022.84 1022.28 1021.72 1021.15 1020.57 1019.97 1019.35 1018.71 1018.04 1017.37 1016.70 1016.04 1015.43 1014.87 1014.39 1014.00 1013.71 1013.53 1013.45 1013.46 1013.55 1013.71 1013.93 1014.18 1014.46 1014.75 1015.06 1015.38 1015.69 1016.01 1016.32
1027.12 1027.00 1026.89 1026.77 1026.62 1026.41 1026.15 1025.82 1025.44 1025.01 1024.55 1024.07 1023.58 1023.10 1022.63 1022.17 1021.71 1021.26 1020.79 1020.31 1019.80 1019.26 1018.70 1018.13 1017.56 1017.01 1016.49 1016.03 1015.63 1015.32 1015.10 1014.96 1014.91 1014.93 1015.01 1015.15 1015.31 1015.51 1015.72 1015.94 1016.17 1016.39 1016.61 1016.82
1027.33 1027.20 1027.09 1026.96 1026.79 1026.56 1026.28 1025.94 1025.54 1025.11 1024.66 1024.20 1023.76 1023.33 1022.93 1022.55 1022.19 1021.83 1021.48 1021.11 1020.71 1020.28 1019.83 1019.35 1018.86 1018.38 1017.91 1017.49 1017.12 1016.81 1016.57 1016.41 1016.31 1016.28 1016.30 1016.36 1016.45 1016.56 1016.67 1016.79 1016.90 1017.01 1017.10 1017.19
Thickness
5390 5394 5390 5388 5384 5376 5371 5377 5379 5390 5390 5391 5384 5377 5372 5367 5363 5361 5359 5357 5355 5353 5352 5353 5353 5353 5354 5356 5359 5362 5365 5369 5373 5376 5378 5380 5382 5385 5388 5391 5395 5398 5402 5405
5374 5381 5379 5378 5380 5374 5371 5370 5371 5375 5376 5380 5372 5366 5361 5356 5352 5350 5348 5346 5345 5343 5342 5342 5341 5342 5343 5345 5348 5350 5354 5358 5362 5364 5366 5368 5370 5373 5376 5380 5383 5387 5391 5394
5369 5366 5366 5367 5373 5369 5366 5366 5364 5362 5367 5365 5359 5355 5350 5346 5342 5338 5336 5335 5333 5333 5332 5332 5332 5333 5334 5336 5337 5340 5343 5348 5350 5353 5355 5357 5359 5362 5365 5368 5372 5376 5380 5383
5356 5352 5355 5376 5369 5369 5361 5357 5357 5356 5354 5352 5348 5344 5342 5338 5332 5328 5326 5325 5323 5322 5322 5323 5324 5325 5326 5328 5329 5331 5334 5337 5340 5342 5344 5346 5348 5351 5354 5357 5361 5365 5369 5373
5347 5348 5358 5366 5357 5352 5347 5346 5349 5346 5345 5341 5338 5334 5333 5331 5325 5321 5318 5317 5315 5313 5313 5314 5315 5317 5318 5320 5322 5324 5326 5329 5331 5332 5334 5336 5338 5341 5344 5347 5351 5355 5359 5364
5339 5342 5348 5356 5345 5344 5340 5336 5342 5337 5332 5328 5324 5320 5323 5322 5317 5313 5310 5308 5307 5305 5305 5305 5306 5308 5310 5313 5315 5317 5319 5321 5322 5324 5325 5327 5329 5332 5335 5338 5342 5346 5351 5355
5329 5332 5338 5335 5332 5334 5330 5334 5332 5328 5323 5318 5312 5310 5310 5309 5306 5303 5301 5299 5298 5296 5296 5296 5298 5299 5301 5304 5307 5310 5312 5313 5315 5317 5319 5320 5323 5325 5328 5330 5333 5337 5343 5347
5321 5323 5329 5319 5321 5319 5319 5320 5318 5315 5310 5307 5304 5302 5300 5298 5295 5293 5291 5289 5288 5287 5287 5288 5289 5290 5293 5295 5299 5302 5305 5307 5309 5311 5313 5315 5317 5319 5321 5323 5326 5330 5334 5338
5316 5319 5317 5311 5311 5311 5310 5307 5305 5302 5299 5296 5293 5291 5290 5287 5284 5282 5281 5279 5279 5277 5278 5279 5280 5281 5283 5287 5290 5294 5298 5300 5302 5305 5307 5309 5310 5312 5313 5316 5320 5323 5326 5329
5307 5309 5307 5303 5303 5302 5299 5296 5294 5292 5289 5286 5283 5281 5278 5276 5274 5272 5271 5270 5269 5268 5269 5270 5271 5273 5275 5278 5282 5285 5289 5292 5295 5297 5300 5302 5303 5304 5306 5309 5312 5315 5318 5321
5294 5295 5295 5297 5294 5292 5289 5287 5284 5282 5279 5276 5273 5271 5268 5266 5264 5263 5262 5260 5259 5259 5259 5260 5262 5264 5266 5269 5272 5276 5279 5283 5286 5289 5291 5293 5296 5297 5299 5301 5303 5306 5309 5312
5288 5288 5284 5285 5284 5283 5279 5276 5274 5271 5269 5266 5263 5261 5259 5256 5255 5253 5253 5252 5251 5250 5251 5252 5253 5256 5258 5260 5263 5266 5271 5274 5277 5280 5283 5285 5287 5290 5292 5293 5297 5299 5302 5305
5277 5277 5275 5275 5273 5272 5269 5266 5264 5261 5259 5256 5254 5251 5249 5247 5246 5245 5244 5243 5242 5242 5242 5244 5245 5247 5249 5251 5254 5257 5260 5264 5267 5270 5274 5276 5278 5281 5284 5287 5289 5293 5295 5299
5268 5267 5266 5265 5262 5259 5257 5255 5253 5251 5249 5247 5244 5242 5240 5238 5237 5236 5235 5235 5235 5235 5235 5236 5237 5239 5241 5243 5245 5248 5251 5254 5258 5260 5263 5266 5268 5271 5274 5278 5281 5285 5288 5290
5259 5257 5255 5253 5251 5249 5247 5245 5243 5241 5239 5237 5235 5233 5231 5229 5228 5227 5227 5228 5228 5228 5228 5228 5229 5231 5233 5235 5237 5240 5243 5246 5248 5251 5254 5257 5259 5262 5265 5268 5271 5275 5278 5281
5247 5246 5245 5243 5241 5239 5237 5235 5232 5231 5229 5228 5226 5224 5222 5221 5220 5220 5220 5219 5219 5219 5220 5221 5222 5223 5225 5227 5229 5232 5235 5238 5241 5243 5245 5247 5250 5253 5256 5258 5261 5264 5267 5270
5236 5236 5235 5233 5231 5229 5227 5225 5223 5222 5220 5219 5217 5216 5214 5213 5213 5213 5212 5212 5211 5211 5212 5213 5214 5216 5217 5219 5221 5224 5226 5229 5232 5234 5236 5238 5241 5243 5246 5248 5251 5254 5257 5261
5230 5229 5227 5225 5223 5221 5219 5217 5215 5213 5212 5211 5209 5208 5206 5205 5204 5205 5205 5205 5205 5205 5206 5206 5207 5209 5210 5211 5213 5215 5218 5220 5223 5225 5227 5229 5232 5234 5236 5238 5241 5245 5248 5252
5221 5219 5218 5217 5215 5213 5212 5209 5208 5206 5204 5203 5202 5200 5199 5198 5197 5197 5197 5196 5197 5198 5199 5199 5201 5202 5203 5204 5207 5208 5210 5212 5214 5216 5218 5221 5222 5224 5227 5229 5232 5235 5239 5242
5212 5211 5210 5208 5207 5205 5203 5202 5200 5198 5196 5195 5194 5193 5192 5191 5190 5189 5189 5189 5189 5189 5191 5192 5193 5194 5196 5198 5200 5201 5202 5204 5206 5208 5210 5211 5213 5215 5218 5220 5223 5226 5229 5231
5203 5203 5201 5199 5198 5197 5195 5194 5192 5190 5190 5188 5186 5185 5184 5183 5182 5182 5182 5183 5184 5184 5185 5186 5186 5187 5189 5191 5192 5193 5195 5197 5198 5199 5201 5203 5205 5207 5209 5212 5214 5216 5219 5222
5195 5194 5193 5191 5190 5188 5187 5186 5184 5183 5182 5180 5179 5177 5176 5176 5175 5175 5174 5174 5176 5177 5178 5178 5179 5181 5183 5184 5184 5186 5187 5189 5191 5192 5193 5195 5196 5198 5200 5202 5204 5207 5209 5212
5188 5186 5185 5183 5181 5180 5179 5178 5176 5175 5173 5172 5171 5170 5169 5168 5168 5167 5167 5167 5168 5169 5170 5170 5173 5175 5177 5177 5177 5179 5180 5182 5183 5184 5185 5186 5188 5189 5190 5192 5194 5196 5199 5201
5180 5179 5177 5175 5173 5172 5171 5170 5168 5167 5165 5165 5164 5162 5161 5160 5160 5159 5158 5159 5160 5162 5162 5163 5166 5168 5169 5168 5169 5170 5172 5173 5174 5175 5177 5178 5179 5181 5182 5183 5185 5187 5189 5192
5173 5171 5170 5168 5166 5165 5164 5162 5160 5159 5157 5157 5156 5155 5153 5152 5151 5151 5151 5151 5153 5154 5154 5155 5157 5159 5159 5160 5161 5162 5163 5164 5166 5167 5169 5170 5171 5172 5173 5175 5177 5179 5181 5183
5167 5165 5163 5161 5159 5157 5156 5154 5152 5151 5150 5149 5147 5146 5146 5145 5144 5144 5143 5144 5144 5146 5146 5147 5148 5149 5150 5151 5152 5153 5155 5156 5157 5158 5159 5160 5162 5163 5165 5166 5168 5170 5172 5174
5161 5158 5156 5154 5152 5150 5148 5146 5144 5142 5141 5139 5138 5138 5137 5137 5136 5136 5136 5136 5137 5137 5138 5139 5140 5140 5141 5142 5143 5144 5146 5147 5148 5149 5150 5151 5153 5154 5156 5157 5159 5161 5163 5165